| time (UTC) | temp C | wind direction | speed KPH | gust KPH | rain 1hr cm | rain 24hr cm | rain mn cm | humidity % | barometer mb |
| 20260507195921 | 19 | 277 | 3.2 | 3.2 | 0.00 | 1.22 | 1.22 | 32 | 1004.7 |
| 20260507195419 | 18 | 324 | 3.2 | 3.2 | 0.00 | 1.22 | 1.22 | 33 | 1004.5 |
| 20260507194916 | 18 | 354 | 3.2 | 4.8 | 0.00 | 1.22 | 1.22 | 35 | 1004.9 |
| 20260507194413 | 19 | 231 | 1.6 | 1.6 | 0.00 | 1.22 | 1.22 | 34 | 1004.8 |
| 20260507193909 | 19 | 239 | 4.8 | 6.4 | 0.00 | 1.22 | 1.22 | 33 | 1005.0 |
| 20260507193406 | 19 | 301 | 1.6 | 3.2 | 0.00 | 1.22 | 1.22 | 40 | 1005.0 |
| 20260507192902 | 19 | 185 | 1.6 | 3.2 | 0.00 | 1.22 | 1.22 | 32 | 1005.1 |
| 20260507192358 | 18 | 28 | 3.2 | 4.8 | 0.00 | 1.22 | 1.22 | 33 | 1004.9 |
| 20260507191855 | 18 | 353 | 1.6 | 3.2 | 0.00 | 1.22 | 1.22 | 35 | 1005.1 |
| 20260507191351 | 18 | 353 | 1.6 | 1.6 | 0.00 | 1.22 | 1.22 | 36 | 1005.0 |
| 20260507190848 | 19 | 227 | 1.6 | 3.2 | 0.00 | 1.22 | 1.22 | 33 | 1005.5 |
| 20260507190346 | 18 | 193 | 3.2 | 6.4 | 0.00 | 1.22 | 1.22 | 32 | 1005.3 |
| 20260507185845 | 18 | 258 | 8.0 | 11.3 | 0.00 | 1.22 | 1.22 | 33 | 1005.6 |
| 20260507185342 | 18 | 239 | 3.2 | 3.2 | 0.00 | 1.22 | 1.22 | 36 | 1005.6 |
| 20260507184839 | 18 | 219 | 1.6 | 1.6 | 0.00 | 1.22 | 1.22 | 36 | 1005.5 |
| 20260507184337 | 18 | 48 | 6.4 | 9.7 | 0.00 | 1.22 | 1.22 | 32 | 1005.9 |
| 20260507183833 | 18 | 168 | 1.6 | 3.2 | 0.00 | 1.22 | 1.22 | 35 | 1005.8 |
| 20260507183330 | 18 | 279 | 4.8 | 6.4 | 0.00 | 1.22 | 1.22 | 32 | 1005.9 |
| 20260507182828 | 18 | 49 | 11.3 | 17.7 | 0.00 | 1.22 | 1.22 | 33 | 1005.9 |
| 20260507182323 | 18 | 236 | 1.6 | 3.2 | 0.00 | 1.22 | 1.22 | 35 | 1006.1 |
| 20260507181820 | 17 | 291 | 3.2 | 4.8 | 0.00 | 1.22 | 1.22 | 36 | 1006.1 |
| 20260507181316 | 18 | 231 | 0.0 | 1.6 | 0.00 | 1.22 | 1.22 | 34 | 1006.0 |
| 20260507180813 | 18 | 220 | 3.2 | 3.2 | 0.00 | 1.22 | 1.22 | 35 | 1006.1 |
| 20260507180310 | 17 | 60 | 3.2 | 3.2 | 0.00 | 1.22 | 1.22 | 38 | 1005.9 |
| 20260507175805 | 18 | 187 | 3.2 | 4.8 | 0.00 | 1.22 | 1.22 | 37 | 1006.1 |
| 20260507175306 | 18 | 182 | 1.6 | 1.6 | 0.00 | 1.22 | 1.22 | 48 | 1006.2 |
| 20260507174759 | 17 | 243 | 8.0 | 9.7 | 0.00 | 1.22 | 1.22 | 39 | 1005.9 |
| 20260507174257 | 17 | 254 | 3.2 | 4.8 | 0.00 | 1.22 | 1.22 | 47 | 1006.0 |
| 20260507173755 | 17 | 72 | 1.6 | 3.2 | 0.00 | 1.22 | 1.22 | 44 | 1006.3 |
| 20260507173252 | 17 | 268 | 1.6 | 1.6 | 0.00 | 1.22 | 1.22 | 46 | 1006.3 |
| 20260507172748 | 16 | 69 | 0.0 | 1.6 | 0.00 | 1.22 | 1.22 | 54 | 1006.2 |
| 20260507172245 | 17 | 267 | 6.4 | 6.4 | 0.00 | 1.22 | 1.22 | 52 | 1006.1 |
| 20260507171740 | 16 | 54 | 1.6 | 1.6 | 0.00 | 1.22 | 1.22 | 54 | 1006.2 |
| 20260507171238 | 16 | 83 | 3.2 | 3.2 | 0.00 | 1.22 | 1.22 | 53 | 1006.3 |
| 20260507170735 | 16 | 86 | 0.0 | 1.6 | 0.00 | 1.22 | 1.22 | 57 | 1006.5 |
| 20260507170231 | 16 | 222 | 1.6 | 1.6 | 0.00 | 1.22 | 1.22 | 55 | 1006.5 |
| 20260507165727 | 16 | 287 | 3.2 | 4.8 | 0.00 | 1.22 | 1.22 | 52 | 1006.7 |
| 20260507165223 | 16 | 302 | 1.6 | 1.6 | 0.00 | 1.22 | 1.22 | 52 | 1006.7 |
| 20260507164719 | 17 | 242 | 4.8 | 4.8 | 0.00 | 1.22 | 1.22 | 51 | 1006.5 |
| 20260507164217 | 17 | 240 | 4.8 | 6.4 | 0.00 | 1.22 | 1.22 | 52 | 1006.6 |
| 20260507163714 | 17 | 74 | 3.2 | 6.4 | 0.00 | 1.22 | 1.22 | 51 | 1006.7 |
| 20260507163212 | 16 | 69 | 3.2 | 4.8 | 0.00 | 1.22 | 1.22 | 55 | 1006.8 |
| 20260507162708 | 15 | 199 | 3.2 | 4.8 | 0.00 | 1.22 | 1.22 | 60 | 1006.9 |
| 20260507162204 | 15 | 247 | 3.2 | 3.2 | 0.00 | 1.22 | 1.22 | 64 | 1007.0 |
| 20260507161700 | 15 | 106 | 0.0 | 0.0 | 0.00 | 1.22 | 1.22 | 59 | 1006.9 |
| 20260507161156 | 15 | 300 | 1.6 | 3.2 | 0.00 | 1.22 | 1.22 | 60 | 1006.9 |
| 20260507160653 | 16 | 55 | 3.2 | 3.2 | 0.00 | 1.22 | 1.22 | 57 | 1007.0 |
| 20260507160145 | 15 | 332 | 1.6 | 1.6 | 0.00 | 1.22 | 1.22 | 57 | 1007.2 |
| 20260507155640 | 15 | 216 | 1.6 | 1.6 | 0.00 | 1.22 | 1.22 | 58 | 1007.2 |
| 20260507155137 | 15 | 212 | 0.0 | 0.0 | 0.00 | 1.22 | 1.22 | 54 | 1007.4 |
| 20260507154633 | 15 | 75 | 6.4 | 6.4 | 0.00 | 1.22 | 1.22 | 55 | 1007.5 |
| 20260507154131 | 15 | 227 | 3.2 | 3.2 | 0.00 | 1.22 | 1.22 | 61 | 1007.4 |
| 20260507153626 | 15 | 71 | 1.6 | 3.2 | 0.00 | 1.22 | 1.22 | 57 | 1007.5 |
| 20260507153123 | 15 | 21 | 1.6 | 1.6 | 0.00 | 1.22 | 1.22 | 56 | 1007.2 |
| 20260507152620 | 15 | 19 | 3.2 | 3.2 | 0.00 | 1.22 | 1.22 | 64 | 1007.5 |
| 20260507152116 | 15 | 42 | 4.8 | 6.4 | 0.00 | 1.22 | 1.22 | 55 | 1007.5 |
| 20260507151612 | 15 | 249 | 6.4 | 9.7 | 0.00 | 1.22 | 1.22 | 57 | 1007.4 |
| 20260507151110 | 15 | 247 | 4.8 | 6.4 | 0.00 | 1.22 | 1.22 | 59 | 1007.6 |
| 20260507150607 | 15 | 141 | 3.2 | 4.8 | 0.00 | 1.22 | 1.22 | 57 | 1007.6 |
| 20260507145558 | 15 | 212 | 1.6 | 1.6 | 0.00 | 1.22 | 1.22 | 66 | 1007.8 |
| 20260507145056 | 15 | 67 | 3.2 | 3.2 | 0.00 | 1.22 | 1.22 | 62 | 1007.8 |
| 20260507144552 | 15 | 264 | 0.0 | 1.6 | 0.00 | 1.22 | 1.22 | 61 | 1007.7 |
| 20260507144050 | 15 | 65 | 1.6 | 3.2 | 0.00 | 1.22 | 1.22 | 64 | 1007.8 |
| 20260507143546 | 15 | 206 | 1.6 | 3.2 | 0.00 | 1.22 | 1.22 | 64 | 1007.8 |
| 20260507143045 | 15 | 337 | 3.2 | 4.8 | 0.00 | 1.22 | 1.22 | 65 | 1007.4 |
| 20260507142544 | 14 | 313 | 1.6 | 1.6 | 0.00 | 1.22 | 1.22 | 68 | 1007.7 |
| 20260507142042 | 13 | 249 | 4.8 | 4.8 | 0.00 | 1.22 | 1.22 | 74 | 1007.8 |
| 20260507141538 | 13 | 68 | 3.2 | 3.2 | 0.00 | 1.22 | 1.22 | 70 | 1007.9 |
| 20260507141035 | 13 | 195 | 1.6 | 3.2 | 0.00 | 1.22 | 1.22 | 78 | 1008.1 |
| 20260507140532 | 12 | 171 | 0.0 | 1.6 | 0.00 | 1.22 | 1.22 | 71 | 1008.0 |
| 20260507140029 | 12 | 47 | 3.2 | 4.8 | 0.00 | 1.22 | 1.22 | 74 | 1008.2 |
| 20260507135526 | 12 | 20 | 8.0 | 12.9 | 0.00 | 1.22 | 1.22 | 76 | 1008.2 |
| 20260507135023 | 12 | 204 | 1.6 | 1.6 | 0.00 | 1.22 | 1.22 | 85 | 1007.9 |
| 20260507134520 | 12 | 344 | 1.6 | 3.2 | 0.00 | 1.22 | 1.22 | 84 | 1008.0 |
| 20260507134015 | 12 | 211 | 1.6 | 3.2 | 0.00 | 1.22 | 1.22 | 89 | 1008.1 |
| 20260507133512 | 11 | 103 | 1.6 | 3.2 | 0.00 | 1.22 | 1.22 | 91 | 1008.1 |
| 20260507133010 | 11 | 240 | 1.6 | 3.2 | 0.00 | 1.22 | 1.22 | 92 | 1008.0 |
| 20260507132506 | 11 | 162 | 1.6 | 1.6 | 0.00 | 1.22 | 1.22 | 94 | 1008.3 |
| 20260507132002 | 11 | 241 | 1.6 | 3.2 | 0.00 | 1.22 | 1.22 | 94 | 1008.2 |
| 20260507131459 | 11 | 207 | 0.0 | 0.0 | 0.00 | 1.22 | 1.22 | 96 | 1008.0 |
| 20260507130956 | 11 | 201 | 1.6 | 1.6 | 0.00 | 1.22 | 1.22 | 96 | 1008.3 |
| 20260507130453 | 10 | 192 | 1.6 | 3.2 | 0.00 | 1.22 | 1.22 | 97 | 1008.2 |
| 20260507125952 | 11 | 168 | 0.0 | 1.6 | 0.00 | 1.22 | 1.22 | 98 | 1008.0 |
| 20260507125450 | 10 | 264 | 0.0 | 1.6 | 0.00 | 1.22 | 1.22 | 99 | 1008.0 |
| 20260507124947 | 10 | 207 | 0.0 | 0.0 | 0.00 | 1.22 | 1.22 | 99 | 1008.0 |
| 20260507124443 | 10 | 213 | 0.0 | 0.0 | 0.00 | 1.22 | 1.22 | 99 | 1008.2 |
| 20260507123941 | 10 | 209 | 0.0 | 0.0 | 0.00 | 1.22 | 1.22 | 99 | 1008.0 |
| 20260507123439 | 10 | 154 | 0.0 | 0.0 | 0.00 | 1.22 | 1.22 | 99 | 1008.0 |
| 20260507122935 | 9 | 222 | 0.0 | 0.0 | 0.00 | 1.22 | 1.22 | 99 | 1008.6 |
| 20260507122430 | 9 | 197 | 0.0 | 0.0 | 0.00 | 1.22 | 1.22 | 99 | 1008.4 |
| 20260507121927 | 10 | 201 | 0.0 | 0.0 | 0.00 | 1.22 | 1.22 | 99 | 1008.7 |
| 20260507121422 | 9 | 207 | 1.6 | 1.6 | 0.00 | 1.22 | 1.22 | 99 | 1008.6 |
| 20260507120919 | 9 | 188 | 0.0 | 0.0 | 0.00 | 1.22 | 1.22 | 99 | 1008.1 |
| 20260507120415 | 9 | 205 | 0.0 | 1.6 | 0.00 | 1.22 | 1.22 | 99 | 1008.2 |
| 20260507115912 | 9 | 192 | 0.0 | 0.0 | 0.00 | 1.22 | 1.22 | 99 | 1008.0 |
| 20260507115408 | 8 | 191 | 0.0 | 0.0 | 0.00 | 1.22 | 1.22 | 99 | 1008.3 |
| 20260507114903 | 8 | 210 | 0.0 | 0.0 | 0.18 | 1.22 | 1.22 | 99 | 1008.0 |
| 20260507114401 | 8 | 212 | 0.0 | 0.0 | 0.18 | 1.22 | 1.22 | 99 | 1008.0 |
| 20260507113858 | 8 | 234 | 0.0 | 1.6 | 0.13 | 1.19 | 1.19 | 99 | 1007.9 |
| 20260507113355 | 8 | 201 | 0.0 | 0.0 | 0.13 | 1.19 | 1.19 | 99 | 1008.0 |
| 20260507112852 | 8 | 55 | 0.0 | 1.6 | 0.18 | 1.17 | 1.17 | 99 | 1008.1 |
| 20260507112349 | 8 | 203 | 0.0 | 0.0 | 0.18 | 1.17 | 1.17 | 99 | 1008.2 |
| 20260507111847 | 8 | 222 | 3.2 | 3.2 | 0.00 | 1.14 | 1.14 | 99 | 1008.2 |
| 20260507111343 | 8 | 103 | 0.0 | 1.6 | 0.18 | 1.14 | 1.14 | 99 | 1007.6 |
| 20260507110839 | 8 | 191 | 0.0 | 0.0 | 0.18 | 1.14 | 1.14 | 99 | 1008.1 |
| 20260507110336 | 8 | 264 | 1.6 | 1.6 | 0.18 | 1.14 | 1.14 | 99 | 1008.2 |
| 20260507105833 | 8 | 204 | 0.0 | 0.0 | 0.00 | 1.12 | 1.12 | 99 | 1008.2 |
| 20260507105329 | 8 | 197 | 0.0 | 1.6 | 0.00 | 1.12 | 1.12 | 99 | 1007.9 |
| 20260507104826 | 8 | 200 | 1.6 | 1.6 | 0.00 | 1.12 | 1.12 | 99 | 1007.7 |
| 20260507104323 | 8 | 183 | 0.0 | 0.0 | 0.13 | 1.12 | 1.12 | 99 | 1007.2 |
| 20260507103819 | 8 | 101 | 0.0 | 0.0 | 0.13 | 1.12 | 1.12 | 99 | 1007.6 |
| 20260507103315 | 8 | 128 | 1.6 | 1.6 | 0.00 | 1.09 | 1.09 | 99 | 1007.5 |
| 20260507102812 | 8 | 206 | 0.0 | 0.0 | 0.18 | 1.09 | 1.09 | 99 | 1008.0 |
| 20260507102309 | 8 | 211 | 0.0 | 0.0 | 0.18 | 1.09 | 1.09 | 99 | 1007.9 |
| 20260507101805 | 8 | 192 | 3.2 | 3.2 | 0.13 | 1.07 | 1.07 | 99 | 1007.8 |
| 20260507101304 | 8 | 216 | 0.0 | 1.6 | 0.13 | 1.07 | 1.07 | 99 | 1007.8 |
| 20260507100802 | 8 | 213 | 0.0 | 0.0 | 0.00 | 1.04 | 1.04 | 99 | 1008.0 |
| 20260507100300 | 8 | 261 | 1.6 | 3.2 | 0.18 | 1.04 | 1.04 | 99 | 1007.8 |
| 20260507095758 | 8 | 206 | 0.0 | 0.0 | 0.18 | 1.04 | 1.04 | 99 | 1007.6 |
| 20260507095254 | 8 | 225 | 1.6 | 1.6 | 0.00 | 1.02 | 1.02 | 99 | 1007.8 |
| 20260507094751 | 9 | 235 | 0.0 | 0.0 | 0.00 | 1.02 | 1.02 | 99 | 1007.4 |
| 20260507094248 | 9 | 216 | 0.0 | 1.6 | 0.00 | 1.02 | 1.02 | 99 | 1007.4 |
| 20260507093745 | 9 | 265 | 3.2 | 3.2 | 0.13 | 1.02 | 1.02 | 99 | 1007.6 |
| 20260507093244 | 10 | 208 | 0.0 | 0.0 | 0.13 | 1.02 | 1.02 | 99 | 1007.3 |
| 20260507092741 | 10 | 214 | 0.0 | 1.6 | 0.18 | 0.99 | 0.99 | 99 | 1007.1 |
| 20260507092236 | 10 | 222 | 0.0 | 1.6 | 0.18 | 0.99 | 0.99 | 99 | 1007.2 |
| 20260507091733 | 10 | 51 | 1.6 | 3.2 | 0.00 | 0.97 | 0.97 | 99 | 1007.0 |
| 20260507091230 | 10 | 207 | 0.0 | 0.0 | 0.13 | 0.97 | 0.97 | 99 | 1007.6 |
| 20260507090725 | 10 | 202 | 0.0 | 0.0 | 0.13 | 0.97 | 0.97 | 99 | 1007.5 |
| 20260507090222 | 10 | 213 | 0.0 | 1.6 | 0.13 | 0.97 | 0.97 | 99 | 1007.3 |
| 20260507085719 | 10 | 217 | 0.0 | 0.0 | 0.00 | 0.94 | 0.94 | 99 | 1007.0 |
| 20260507085216 | 10 | 186 | 0.0 | 0.0 | 0.00 | 0.94 | 0.94 | 99 | 1006.9 |
| 20260507084713 | 10 | 217 | 0.0 | 0.0 | 0.18 | 0.94 | 0.94 | 99 | 1006.9 |
| 20260507084209 | 10 | 180 | 0.0 | 0.0 | 0.30 | 0.94 | 0.94 | 99 | 1006.8 |
| 20260507083707 | 11 | 211 | 0.0 | 0.0 | 0.30 | 0.94 | 0.94 | 99 | 1006.6 |
| 20260507083204 | 11 | 167 | 0.0 | 0.0 | 0.18 | 0.89 | 0.89 | 99 | 1007.0 |
| 20260507082700 | 11 | 246 | 3.2 | 3.2 | 0.30 | 0.89 | 0.89 | 99 | 1006.9 |
| 20260507082155 | 11 | 160 | 3.2 | 6.4 | 0.30 | 0.89 | 0.89 | 99 | 1006.4 |
| 20260507081653 | 11 | 199 | 0.0 | 0.0 | 0.79 | 0.86 | 0.86 | 99 | 1006.9 |
| 20260507081149 | 11 | 219 | 1.6 | 1.6 | 1.07 | 0.81 | 0.81 | 99 | 1007.0 |
| 20260507080645 | 12 | 132 | 1.6 | 6.4 | 1.19 | 0.74 | 0.74 | 99 | 1006.7 |
| 20260507080143 | 12 | 202 | 1.6 | 1.6 | 1.37 | 0.64 | 0.64 | 99 | 1006.6 |
| 20260507075642 | 12 | 225 | 1.6 | 1.6 | 2.11 | 0.53 | 0.53 | 99 | 1007.3 |
| 20260507075139 | 12 | 185 | 0.0 | 1.6 | 2.11 | 0.41 | 0.41 | 99 | 1006.6 |
| 20260507074636 | 12 | 247 | 3.2 | 3.2 | 1.07 | 0.18 | 0.18 | 99 | 1006.4 |
| 20260507074134 | 12 | 189 | 0.0 | 0.0 | 0.30 | 0.05 | 0.05 | 99 | 1006.2 |
| 20260507073630 | 12 | 196 | 0.0 | 0.0 | 0.00 | 0.00 | 0.00 | 99 | 1005.9 |
| 20260507073127 | 12 | 194 | 0.0 | 0.0 | 0.00 | 0.00 | 0.00 | 99 | 1005.6 |
| 20260507072625 | 12 | 188 | 1.6 | 1.6 | 0.00 | 0.00 | 0.00 | 99 | 1005.8 |
| 20260507072122 | 12 | 202 | 0.0 | 0.0 | 0.00 | 0.00 | 0.00 | 99 | 1005.5 |
| 20260507071619 | 12 | 182 | 0.0 | 0.0 | 0.00 | 0.00 | 0.00 | 99 | 1005.8 |
| 20260507071115 | 12 | 198 | 0.0 | 0.0 | 0.00 | 0.00 | 0.00 | 99 | 1005.8 |
| 20260507070612 | 12 | 208 | 0.0 | 0.0 | 0.00 | 0.00 | 0.00 | 99 | 1005.9 |
| 20260507070109 | 12 | 196 | 0.0 | 0.0 | 0.00 | 0.00 | 0.00 | 99 | 1005.9 |
| 20260507065606 | 12 | 199 | 0.0 | 0.0 | 0.00 | 0.00 | 0.00 | 99 | 1005.7 |
| 20260507065103 | 12 | 195 | 0.0 | 0.0 | 0.00 | 0.00 | 0.00 | 99 | 1005.9 |
| 20260507064600 | 12 | 218 | 0.0 | 1.6 | 0.00 | 0.00 | 0.00 | 99 | 1006.0 |
| 20260507064059 | 12 | 205 | 0.0 | 0.0 | 0.00 | 0.00 | 0.00 | 99 | 1005.8 |
| 20260507063556 | 12 | 203 | 0.0 | 0.0 | 0.00 | 0.00 | 0.00 | 99 | 1005.8 |
| 20260507063053 | 12 | 202 | 0.0 | 0.0 | 0.00 | 0.00 | 0.00 | 99 | 1006.1 |
| 20260507062549 | 12 | 200 | 0.0 | 0.0 | 0.00 | 0.00 | 0.00 | 99 | 1005.8 |
| 20260507062047 | 12 | 210 | 0.0 | 0.0 | 0.00 | 0.00 | 0.00 | 99 | 1005.9 |
| 20260507061545 | 12 | 203 | 0.0 | 0.0 | 0.00 | 0.00 | 0.00 | 99 | 1005.9 |
| 20260507061043 | 12 | 108 | 0.0 | 1.6 | 0.00 | 0.00 | 0.00 | 99 | 1005.9 |
| 20260507060540 | 12 | 222 | 3.2 | 3.2 | 0.00 | 0.00 | 0.00 | 99 | 1006.0 |
| 20260507060037 | 12 | 204 | 0.0 | 0.0 | 0.00 | 0.00 | 0.00 | 99 | 1006.5 |
| 20260507055531 | 12 | 204 | 1.6 | 1.6 | 0.00 | 0.00 | 0.00 | 99 | 1006.1 |
| 20260507055028 | 13 | 210 | 0.0 | 0.0 | 0.00 | 0.00 | 0.00 | 99 | 1006.4 |
| 20260507054524 | 13 | 218 | 0.0 | 0.0 | 0.00 | 0.00 | 0.00 | 99 | 1006.4 |
| 20260507054021 | 13 | 199 | 0.0 | 1.6 | 0.00 | 0.00 | 0.00 | 99 | 1006.4 |
| 20260507053519 | 13 | 188 | 1.6 | 3.2 | 0.00 | 0.00 | 0.00 | 99 | 1006.4 |
| 20260507053017 | 13 | 198 | 1.6 | 1.6 | 0.00 | 0.00 | 0.00 | 99 | 1006.4 |
| 20260507052515 | 13 | 226 | 0.0 | 1.6 | 0.00 | 0.00 | 0.00 | 99 | 1006.5 |
| 20260507052011 | 13 | 181 | 1.6 | 3.2 | 0.00 | 0.00 | 0.00 | 99 | 1006.7 |
| 20260507051509 | 13 | 208 | 0.0 | 0.0 | 0.00 | 0.00 | 0.00 | 99 | 1006.7 |
| 20260507051006 | 13 | 200 | 1.6 | 1.6 | 0.00 | 0.00 | 0.00 | 99 | 1006.5 |
| 20260507050502 | 13 | 221 | 1.6 | 3.2 | 0.00 | 0.00 | 0.00 | 99 | 1006.6 |
| 20260507045959 | 13 | 245 | 0.0 | 1.6 | 0.00 | 0.00 | 0.00 | 99 | 1007.0 |
| 20260507045455 | 13 | 231 | 1.6 | 1.6 | 0.00 | 0.00 | 0.00 | 99 | 1006.8 |
| 20260507044953 | 13 | 197 | 0.0 | 0.0 | 0.00 | 0.00 | 0.00 | 99 | 1006.6 |
| 20260507044449 | 13 | 181 | 1.6 | 3.2 | 0.00 | 0.00 | 0.00 | 99 | 1006.8 |
| 20260507043945 | 13 | 213 | 0.0 | 1.6 | 0.00 | 0.00 | 0.00 | 99 | 1006.8 |
| 20260507043442 | 13 | 206 | 0.0 | 0.0 | 0.00 | 0.00 | 0.00 | 99 | 1006.8 |
| 20260507042938 | 13 | 195 | 3.2 | 3.2 | 0.00 | 0.00 | 0.00 | 99 | 1006.6 |
| 20260507042435 | 13 | 253 | 1.6 | 3.2 | 0.00 | 0.00 | 0.00 | 99 | 1006.5 |
| 20260507041931 | 13 | 213 | 0.0 | 1.6 | 0.00 | 0.00 | 0.00 | 99 | 1006.7 |
| 20260507041427 | 13 | 180 | 1.6 | 1.6 | 0.00 | 0.00 | 0.00 | 99 | 1006.7 |
| 20260507040925 | 13 | 205 | 0.0 | 1.6 | 0.00 | 0.00 | 0.00 | 99 | 1006.7 |
| 20260507040421 | 13 | 223 | 1.6 | 1.6 | 0.00 | 0.00 | 0.00 | 99 | 1006.7 |
| 20260507035917 | 13 | 234 | 0.0 | 1.6 | 0.00 | 0.43 | 0.43 | 99 | 1006.6 |
| 20260507035413 | 13 | 217 | 0.0 | 1.6 | 0.00 | 0.43 | 0.43 | 99 | 1006.6 |
| 20260507034910 | 13 | 205 | 0.0 | 0.0 | 0.00 | 0.43 | 0.43 | 99 | 1006.8 |
| 20260507034407 | 13 | 226 | 1.6 | 1.6 | 0.00 | 0.43 | 0.43 | 99 | 1006.9 |
| 20260507033905 | 13 | 156 | 3.2 | 3.2 | 0.00 | 0.43 | 0.43 | 99 | 1006.9 |
| 20260507033403 | 13 | 219 | 1.6 | 3.2 | 0.00 | 0.43 | 0.43 | 99 | 1007.2 |
| 20260507032859 | 13 | 206 | 0.0 | 0.0 | 0.00 | 0.43 | 0.43 | 99 | 1006.9 |
| 20260507032356 | 12 | 180 | 0.0 | 1.6 | 0.00 | 0.43 | 0.43 | 99 | 1007.0 |
| 20260507031852 | 12 | 225 | 3.2 | 4.8 | 0.00 | 0.43 | 0.43 | 99 | 1006.7 |
| 20260507031349 | 12 | 212 | 3.2 | 3.2 | 0.00 | 0.43 | 0.43 | 99 | 1006.8 |
| 20260507030846 | 12 | 201 | 6.4 | 11.3 | 0.00 | 0.43 | 0.43 | 99 | 1006.8 |
| 20260507030343 | 12 | 167 | 4.8 | 6.4 | 0.00 | 0.43 | 0.43 | 99 | 1006.8 |
| 20260507025840 | 12 | 207 | 1.6 | 3.2 | 0.00 | 0.43 | 0.43 | 99 | 1006.9 |
| 20260507025337 | 12 | 199 | 1.6 | 4.8 | 0.00 | 0.43 | 0.43 | 99 | 1006.8 |
| 20260507024835 | 12 | 247 | 1.6 | 3.2 | 0.00 | 0.43 | 0.43 | 99 | 1006.8 |
| 20260507024332 | 12 | 210 | 0.0 | 0.0 | 0.00 | 0.43 | 0.43 | 99 | 1006.6 |
| 20260507023828 | 12 | 209 | 0.0 | 1.6 | 0.00 | 0.43 | 0.43 | 99 | 1006.6 |
| 20260507023325 | 12 | 184 | 0.0 | 1.6 | 0.00 | 0.43 | 0.43 | 99 | 1006.6 |
| 20260507022823 | 12 | 234 | 0.0 | 1.6 | 0.00 | 0.43 | 0.43 | 99 | 1006.5 |
| 20260507022319 | 12 | 240 | 1.6 | 4.8 | 0.00 | 0.43 | 0.43 | 99 | 1006.5 |
| 20260507021815 | 12 | 227 | 3.2 | 3.2 | 0.00 | 0.43 | 0.43 | 99 | 1006.9 |
| 20260507021311 | 12 | 227 | 1.6 | 3.2 | 0.00 | 0.43 | 0.43 | 99 | 1006.8 |
| 20260507020809 | 12 | 218 | 3.2 | 4.8 | 0.00 | 0.43 | 0.43 | 99 | 1006.8 |
| 20260507020305 | 12 | 242 | 1.6 | 1.6 | 0.00 | 0.43 | 0.43 | 99 | 1007.2 |
| 20260507015802 | 12 | 198 | 1.6 | 1.6 | 0.00 | 0.43 | 0.43 | 99 | 1007.1 |
| 20260507015300 | 12 | 351 | 1.6 | 4.8 | 0.00 | 0.43 | 0.43 | 99 | 1007.5 |
| 20260507014757 | 12 | 188 | 3.2 | 6.4 | 0.00 | 0.43 | 0.43 | 99 | 1007.4 |
| 20260507014253 | 12 | 231 | 1.6 | 1.6 | 0.00 | 0.43 | 0.43 | 99 | 1007.3 |
| 20260507013750 | 12 | 218 | 6.4 | 6.4 | 0.00 | 0.43 | 0.43 | 99 | 1007.1 |
| 20260507013247 | 12 | 212 | 1.6 | 3.2 | 0.00 | 0.43 | 0.43 | 99 | 1007.4 |
| 20260507012744 | 12 | 236 | 1.6 | 3.2 | 0.00 | 0.43 | 0.43 | 99 | 1007.3 |
| 20260507012244 | 12 | 212 | 0.0 | 1.6 | 0.00 | 0.43 | 0.43 | 99 | 1007.3 |
| 20260507011743 | 12 | 195 | 8.0 | 11.3 | 0.00 | 0.43 | 0.43 | 99 | 1007.4 |
| 20260507011239 | 12 | 15 | 3.2 | 4.8 | 0.00 | 0.43 | 0.43 | 99 | 1007.4 |
| 20260507010738 | 12 | 47 | 3.2 | 4.8 | 0.00 | 0.43 | 0.43 | 99 | 1007.6 |
| 20260507010234 | 12 | 206 | 3.2 | 3.2 | 0.00 | 0.43 | 0.43 | 99 | 1007.5 |
| 20260507005732 | 12 | 218 | 3.2 | 4.8 | 0.00 | 0.43 | 0.43 | 99 | 1007.5 |
| 20260507005228 | 13 | 235 | 8.0 | 12.9 | 0.00 | 0.43 | 0.43 | 99 | 1007.4 |
| 20260507004725 | 13 | 199 | 3.2 | 4.8 | 0.00 | 0.43 | 0.43 | 99 | 1007.6 |
| 20260507004223 | 13 | 249 | 6.4 | 6.4 | 0.00 | 0.43 | 0.43 | 99 | 1007.4 |
| 20260507003719 | 13 | 213 | 6.4 | 6.4 | 0.00 | 0.43 | 0.43 | 99 | 1007.3 |
| 20260507003214 | 13 | 252 | 3.2 | 4.8 | 0.18 | 0.43 | 0.43 | 99 | 1007.3 |
| 20260507002710 | 13 | 232 | 6.4 | 9.7 | 0.18 | 0.43 | 0.43 | 99 | 1007.3 |
| 20260507002206 | 13 | 216 | 3.2 | 3.2 | 0.00 | 0.41 | 0.41 | 99 | 1007.3 |
| 20260507001703 | 13 | 203 | 6.4 | 6.4 | 0.00 | 0.41 | 0.41 | 99 | 1007.2 |
| 20260507001201 | 13 | 133 | 3.2 | 3.2 | 0.00 | 0.41 | 0.41 | 99 | 1007.3 |
| 20260507000657 | 13 | 187 | 1.6 | 1.6 | 0.00 | 0.41 | 0.41 | 99 | 1007.5 |
| 20260507000152 | 13 | 170 | 1.6 | 1.6 | 0.00 | 0.41 | 0.41 | 99 | 1007.2 |
| 20260506235650 | 13 | 197 | 3.2 | 6.4 | 0.00 | 0.41 | 0.41 | 99 | 1007.5 |
| 20260506235145 | 13 | 159 | 1.6 | 1.6 | 0.13 | 0.41 | 0.41 | 99 | 1007.2 |
| 20260506234642 | 13 | 230 | 3.2 | 3.2 | 0.13 | 0.41 | 0.41 | 99 | 1007.2 |
| 20260506234139 | 13 | 158 | 6.4 | 11.3 | 0.00 | 0.38 | 0.38 | 99 | 1007.4 |
| 20260506233636 | 13 | 191 | 1.6 | 1.6 | 0.18 | 0.38 | 0.38 | 99 | 1007.5 |
| 20260506233133 | 13 | 154 | 3.2 | 3.2 | 0.18 | 0.38 | 0.38 | 98 | 1007.3 |
| 20260506232629 | 13 | 222 | 1.6 | 1.6 | 0.00 | 0.36 | 0.36 | 98 | 1007.4 |
| 20260506232125 | 13 | 220 | 3.2 | 4.8 | 0.13 | 0.36 | 0.36 | 98 | 1007.5 |
| 20260506231622 | 13 | 243 | 12.9 | 16.1 | 0.30 | 0.36 | 0.36 | 98 | 1007.6 |
| 20260506231121 | 13 | 237 | 6.4 | 9.7 | 0.18 | 0.33 | 0.33 | 98 | 1007.4 |
| 20260506230617 | 13 | 187 | 6.4 | 9.7 | 0.18 | 0.30 | 0.30 | 98 | 1007.4 |
| 20260506230114 | 13 | 194 | 1.6 | 3.2 | 0.30 | 0.30 | 0.30 | 98 | 1007.4 |
| 20260506225611 | 13 | 202 | 9.7 | 16.1 | 0.30 | 0.28 | 0.28 | 98 | 1007.3 |
| 20260506225107 | 13 | 174 | 4.8 | 4.8 | 0.18 | 0.25 | 0.25 | 98 | 1007.3 |
| 20260506224604 | 13 | 226 | 3.2 | 4.8 | 0.13 | 0.23 | 0.23 | 97 | 1007.3 |
| 20260506224101 | 13 | 189 | 1.6 | 4.8 | 0.30 | 0.23 | 0.23 | 97 | 1007.6 |
| 20260506223556 | 13 | 106 | 3.2 | 4.8 | 0.18 | 0.20 | 0.20 | 97 | 1007.3 |
| 20260506223053 | 13 | 222 | 4.8 | 9.7 | 0.13 | 0.18 | 0.18 | 97 | 1007.5 |
| 20260506222550 | 13 | 203 | 1.6 | 1.6 | 0.13 | 0.18 | 0.18 | 96 | 1007.5 |
| 20260506222046 | 13 | 173 | 9.7 | 12.9 | 0.00 | 0.15 | 0.15 | 96 | 1007.7 |
| 20260506221544 | 13 | 86 | 3.2 | 6.4 | 0.00 | 0.15 | 0.15 | 96 | 1007.7 |
| 20260506221042 | 13 | 211 | 8.0 | 11.3 | 0.00 | 0.15 | 0.15 | 96 | 1007.8 |
| 20260506220537 | 13 | 225 | 4.8 | 6.4 | 0.00 | 0.15 | 0.15 | 96 | 1007.9 |
| 20260506220033 | 13 | 233 | 4.8 | 9.7 | 0.00 | 0.15 | 0.15 | 96 | 1008.0 |
| 20260506215530 | 13 | 238 | 6.4 | 6.4 | 0.00 | 0.15 | 0.15 | 97 | 1007.9 |
| 20260506215026 | 13 | 203 | 1.6 | 3.2 | 0.00 | 0.15 | 0.15 | 97 | 1007.9 |
| 20260506214523 | 13 | 231 | 3.2 | 4.8 | 0.00 | 0.15 | 0.15 | 97 | 1007.8 |
| 20260506214020 | 13 | 293 | 3.2 | 4.8 | 0.00 | 0.15 | 0.15 | 96 | 1008.0 |
| 20260506213518 | 13 | 152 | 1.6 | 4.8 | 0.18 | 0.15 | 0.15 | 96 | 1007.9 |
| 20260506213015 | 14 | 198 | 3.2 | 4.8 | 0.30 | 0.15 | 0.15 | 96 | 1007.9 |
| 20260506212512 | 14 | 246 | 1.6 | 1.6 | 0.30 | 0.13 | 0.13 | 95 | 1008.0 |
| 20260506212007 | 14 | 202 | 0.0 | 0.0 | 0.30 | 0.10 | 0.10 | 94 | 1007.9 |
| 20260506211502 | 14 | 313 | 4.8 | 4.8 | 0.13 | 0.08 | 0.08 | 94 | 1008.2 |
| 20260506211000 | 15 | 260 | 6.4 | 9.7 | 0.00 | 0.05 | 0.05 | 93 | 1008.2 |
| 20260506210456 | 15 | 79 | 3.2 | 4.8 | 0.00 | 0.05 | 0.05 | 91 | 1008.0 |
| 20260506205953 | 15 | 212 | 8.0 | 14.5 | 0.00 | 0.05 | 0.05 | 89 | 1008.1 |
| 20260506205449 | 15 | 164 | 6.4 | 9.7 | 0.00 | 0.05 | 0.05 | 89 | 1008.2 |
| 20260506204946 | 15 | 205 | 4.8 | 6.4 | 0.00 | 0.05 | 0.05 | 91 | 1008.1 |
| 20260506204444 | 15 | 222 | 3.2 | 4.8 | 0.00 | 0.05 | 0.05 | 91 | 1008.3 |
| 20260506203941 | 15 | 231 | 1.6 | 3.2 | 0.00 | 0.05 | 0.05 | 91 | 1008.3 |
| 20260506203438 | 15 | 213 | 4.8 | 9.7 | 0.00 | 0.05 | 0.05 | 92 | 1008.3 |
| 20260506202935 | 15 | 193 | 3.2 | 4.8 | 0.00 | 0.05 | 0.05 | 93 | 1008.4 |
| 20260506202432 | 15 | 102 | 3.2 | 3.2 | 0.00 | 0.05 | 0.05 | 92 | 1008.7 |
| 20260506201928 | 15 | 185 | 4.8 | 6.4 | 0.00 | 0.05 | 0.05 | 92 | 1008.6 |
| 20260506201426 | 15 | 223 | 1.6 | 3.2 | 0.00 | 0.05 | 0.05 | 92 | 1008.4 |
| 20260506200922 | 15 | 78 | 3.2 | 4.8 | 0.18 | 0.05 | 0.05 | 92 | 1008.6 |
| 20260506200419 | 14 | 192 | 4.8 | 6.4 | 0.18 | 0.05 | 0.05 | 91 | 1008.7 |